Home > Weather > Sukkur > Past weeks

Flag for Pakistan Past Weather in Sukkur, Sindh, Pakistan — Yesterday and Last 2 Weeks

Now
90 °F

Passing clouds.


Feels Like: 103 °F
Forecast: 88 / 108 °F
Wind: No wind

Location: Sukkur

Current Time: Jul 25, 2016 at 3:35:14 AM

Latest Report: Jul 25, 2016 at 1:00 AM


Visibility: 2 mi

Pressure: 29.47 "Hg

Humidity: 67%

Dew Point: 77 °F

Location of SukkurLocation

Past Weather in Sukkur — Graph

°F

Sukkur Temperature Yesterday

Maximum temperature yesterday: 106 °F (at 3:00 PM)
Minimum temperature yesterday: 86 °F (at 4:59 AM)
Average temperature yesterday: 97 °F

High & Low Weather Summary for the Past Weeks

 TemperatureHumidityPressure
High111 °F (Jul 13, 5:00 PM)100% (Jul 15, 5:00 AM)29.59 "Hg (Jul 15, 5:00 AM)
Low70 °F (Jul 15, 5:00 AM)34% (Jul 13, 5:00 PM)29.27 "Hg (Jul 10, 6:00 PM)
Average97 °F57%29.41 "Hg
* Reported Jul 10 1:00 AM — Jul 25 1:00 AM, Sukkur, Weather by CustomWeather, © 2016

Note: Actual official high and low records may vary slightly from our data, if they occured in-between our weather recording intervals... More about our weather records

Advertising

Sukkur Weather History for the Previous 24 Hours

Scroll right to see more
 ConditionsComfort  
Time TempWeatherWind HumidityBarometerVisibility
1:00 AM
Mon, Jul 25
90 °FPassing clouds.No wind67%29.47 "Hg2 mi
12:00 AM90 °FPassing clouds.No wind71%29.50 "Hg2 mi
11:00 PM
Sun, Jul 24
93 °FPassing clouds.No wind63%29.53 "Hg2 mi
10:00 PM95 °FPassing clouds.5 mph56%29.50 "Hg2 mi
9:00 PM97 °FHaze.2 mph53%29.47 "Hg2 mi
8:00 PM99 °FPassing clouds.7 mph47%29.47 "Hg2 mi
7:30 PM100 °FHaze.7 mph45%29.45 "Hg2 mi
7:00 PM100 °FHaze.7 mph45%29.45 "Hg2 mi
6:00 PM104 °FHaze.7 mph38%29.45 "Hg2 mi
5:00 PM106 °FHaze.12 mph34%29.47 "Hg2 mi
4:00 PM106 °FHaze.7 mph34%29.47 "Hg2 mi
3:00 PM106 °FHaze.12 mph34%29.50 "Hg2 mi
2:00 PM104 °FHaze.12 mph38%29.53 "Hg2 mi
1:00 PM102 °FHaze.12 mph42%29.56 "Hg2 mi
12:00 PM100 °FHaze.12 mph47%29.56 "Hg2 mi
11:00 AM97 °FHaze.12 mph53%29.59 "Hg2 mi
10:00 AM95 °FHaze.12 mph56%29.56 "Hg2 mi
9:00 AM91 °FHaze.7 mph63%29.56 "Hg2 mi
8:00 AM88 °FHaze.7 mph70%29.56 "Hg2 mi
7:00 AM86 °FHaze.No wind75%29.53 "Hg2 mi
6:00 AM86 °FHaze.No wind75%29.50 "Hg2 mi
4:59 AM86 °FHaze.No wind75%29.50 "Hg2 mi
Weather by CustomWeather, © 2016

See weather overviewHow to use our weather pages